GEFSNGP_con_maxscp_204.txt.gz
SCP
1 2 2 2 1 1 0 0 0 0 0 0 1 2 2 1 2 2 2 3 5 7 7 6 5 4 3 2 3 3 3 3 2 2 2 2 2 2 2 2 2 2 2 1
1 2 2 2 2 1 1 0 0 0 0 0 1 2 2 2 2 2 2 3 5 6 6 5 5 4 3 3 3 3 3 3 3 3 3 2 2 2 2 2 2 2 2 2
1 1 1 1 1 2 1 1 0 0 0 1 2 2 2 2 2 2 2 2 3 5 5 5 5 4 3 3 3 3 4 4 3 3 2 2 2 1 1 2 2 2 2 2
0 0 1 1 1 1 2 1 1 1 1 1 2 2 2 2 1 1 1 1 2 3 4 5 5 4 3 3 3 4 4 4 3 2 2 2 1 1 1 2 2 2 2 2
0 0 0 0 1 1 1 1 1 1 1 2 2 2 2 1 1 1 1 1 2 2 4 5 4 3 2 2 3 4 4 4 3 2 1 1 1 1 1 2 2 2 2 2
0 0 0 0 0 1 1 1 1 1 1 2 2 2 2 1 1 1 2 2 2 3 4 4 3 3 2 2 2 3 4 4 3 1 1 1 1 1 1 1 2 2 2 2
0 0 0 0 0 1 1 1 1 1 1 2 2 2 2 2 1 1 2 2 2 3 3 3 3 2 2 2 2 2 3 3 2 2 2 2 1 1 1 1 1 1 1 1
0 0 0 0 0 0 0 0 1 1 1 2 2 2 2 2 2 2 2 2 3 3 3 3 2 2 2 2 1 2 2 3 3 3 3 2 2 1 1 1 1 1 1 1
0 0 0 0 0 0 0 0 1 1 2 2 3 3 2 2 2 2 2 2 3 3 3 2 2 1 1 1 1 2 2 2 3 3 3 3 2 2 2 2 2 2 2 2
0 0 0 1 1 0 0 1 1 2 2 3 3 3 2 2 2 2 2 2 2 3 3 2 2 1 1 1 1 2 2 2 3 3 3 3 2 2 2 2 2 2 1 1
0 0 0 1 1 0 1 1 1 2 2 2 3 3 3 2 2 2 2 1 2 2 3 3 2 2 2 2 2 2 2 3 3 3 2 2 2 1 1 1 1 1 1 1
0 0 0 0 0 1 1 1 2 2 2 2 3 3 3 3 2 2 1 1 2 2 2 2 2 2 2 2 2 2 2 2 2 2 2 1 1 0 0 0 0 0 0 0
0 0 0 0 1 1 1 1 1 2 2 2 2 2 2 2 2 1 1 1 2 2 2 2 2 2 2 1 2 2 1 1 1 1 1 0 0 0 0 0 0 0 0 0
0 0 0 0 1 1 1 1 1 2 2 2 2 1 1 1 1 1 1 1 2 2 2 2 2 2 1 1 1 1 1 1 1 0 0 0 0 0 0 0 0 0 0 0
0 0 0 0 1 1 1 1 2 2 2 2 1 1 1 1 1 1 1 1 2 2 2 2 2 1 1 1 1 1 0 0 0 0 0 0 0 0 0 0 0 0 0 0
0 0 0 0 0 1 1 1 2 2 2 1 1 0 1 2 2 1 1 2 2 2 2 2 2 2 1 1 1 1 1 0 0 0 0 0 0 0 0 0 0 0 0 0
0 0 0 0 0 0 1 1 1 1 1 1 0 0 2 3 3 3 2 2 3 3 3 3 2 2 2 2 1 1 1 1 0 0 0 0 0 0 0 0 0 0 0 0
0 0 0 0 0 0 0 1 0 0 0 0 0 1 2 3 4 3 3 3 3 3 3 3 2 2 2 2 1 1 1 0 0 0 0 0 0 0 0 0 0 0 0 0
0 0 0 0 0 0 0 0 0 0 0 0 0 1 2 2 2 2 2 2 2 2 2 2 2 2 1 1 1 0 0 0 0 0 0 0 0 0 0 0 0 0 0 0
0 0 0 0 0 0 0 0 0 0 0 0 0 1 1 1 1 2 2 2 2 1 1 1 1 1 0 0 0 0 0 0 0 0 0 0 0 0 0 0 0 0 0 0
0 0 0 0 0 0 0 0 0 0 0 0 0 0 1 1 1 1 2 1 1 1 0 0 0 0 0 0 0 0 0 0 0 0 0 0 0 0 0 0 0 0 0 0
0 0 0 0 0 0 0 0 0 0 0 0 0 1 1 1 1 1 1 1 1 0 0 0 0 0 0 0 0 0 0 0 0 0 0 0 0 0 0 0 0 0 0 0
0 0 0 0 0 0 0 0 0 0 1 1 1 1 1 1 1 1 1 1 0 0 0 0 0 0 0 0 0 0 0 0 0 0 0 0 0 0 0 0 0 0 0 0
0 0 0 0 0 0 0 0 0 1 1 1 1 1 1 1 1 1 0 0 0 0 0 0 0 0 0 0 0 0 0 0 0 0 0 0 0 0 0 0 0 0 0 0
0 0 0 0 0 0 0 0 0 0 0 0 0 0 0 0 0 0 0 0 0 0 0 0 0 0 0 0 0 0 0 0 0 0 0 0 0 0 0 0 0 0 0 0
0 0 0 0 0 0 0 0 0 0 0 0 0 0 0 0 0 0 0 0 0 0 0 0 0 0 0 0 0 0 0 0 0 0 0 0 0 0 0 0 0 0 0 0
0 0 0 0 0 0 0 0 0 0 0 0 0 0 0 0 0 0 0 0 0 0 0 0 0 0 0 0 0 0 0 0 0 0 0 0 0 0 0 0 0 0 0 0

GEFSNGP_con_maxscp_210.txt.gz
SCP
0 0 0 0 0 0 0 0 0 1 1 2 2 3 3 2 3 3 4 5 6 6 6 5 5 6 5 5 6 6 6 6 5 4 3 3 3 4 4 4 4 4 3 3
0 0 0 1 0 0 0 0 0 1 1 2 2 3 2 2 3 3 4 4 5 5 5 5 4 5 5 5 5 5 5 5 5 4 3 3 3 4 4 4 4 4 3 3
1 1 1 1 1 1 1 1 1 1 1 2 2 2 2 2 3 3 3 3 3 4 4 4 4 4 5 5 5 5 4 5 4 3 3 3 3 4 4 4 4 4 4 3
1 1 1 1 1 1 1 1 1 1 1 1 2 2 2 2 3 3 3 3 3 3 3 3 4 4 5 5 5 5 5 4 3 3 3 3 3 3 4 4 4 4 4 4
0 0 1 1 1 1 1 1 1 1 1 1 2 3 3 3 3 4 4 4 3 3 3 4 4 5 5 5 5 5 5 4 3 3 4 4 4 3 3 4 4 3 3 3
0 1 1 1 1 1 1 1 1 1 1 2 3 3 3 4 4 5 5 4 4 3 3 4 4 5 4 4 4 4 4 3 3 3 3 4 3 3 3 3 3 3 3 3
1 1 1 1 1 1 1 1 1 1 1 2 2 3 3 4 4 4 4 4 4 4 4 5 5 5 5 5 4 4 3 3 2 2 2 3 3 3 3 2 2 2 2 2
1 1 1 1 1 1 1 2 2 1 1 2 3 3 3 3 3 3 3 3 3 4 4 5 5 5 5 5 4 3 3 2 2 2 2 2 2 2 2 2 2 2 2 2
1 1 1 1 1 1 1 2 2 2 2 2 3 3 3 3 3 3 3 3 3 4 4 4 5 6 7 6 4 3 2 2 2 2 1 2 2 2 2 2 1 1 2 2
1 1 1 1 1 1 1 2 2 2 2 2 2 2 2 3 3 3 4 4 4 4 4 4 6 8 7 6 4 3 2 2 2 2 2 2 2 2 2 2 2 2 2 2
2 1 1 1 1 1 1 1 2 2 3 2 2 2 3 4 5 5 5 5 5 4 4 5 7 7 7 6 4 3 3 2 2 2 2 2 2 2 2 2 2 2 2 2
2 2 1 2 2 2 2 2 2 2 3 2 2 3 4 6 7 7 6 6 5 5 4 5 6 6 6 5 4 3 3 2 2 3 3 3 2 2 1 1 1 1 1 1
1 2 2 2 2 2 2 2 2 2 2 3 4 4 5 7 7 7 6 6 6 5 4 5 5 5 5 5 4 3 3 2 2 3 3 3 2 1 1 1 0 0 0 0
1 1 2 2 2 2 2 2 2 3 4 4 5 5 5 5 6 6 6 5 6 5 3 3 3 4 4 4 4 3 2 2 3 3 3 2 2 2 1 1 1 0 0 0
1 2 2 2 2 2 2 2 3 3 4 4 4 4 4 4 5 4 4 4 5 4 3 2 3 3 3 4 4 4 3 3 2 2 2 2 2 2 1 1 1 1 1 0
1 2 2 2 2 2 2 2 3 3 3 3 3 3 3 4 4 3 3 4 4 4 3 3 3 4 4 4 5 5 4 3 3 2 2 2 2 1 1 1 1 1 1 1
1 1 2 2 2 2 2 2 2 2 2 2 2 2 2 3 2 2 3 4 4 4 3 3 4 5 5 5 6 6 6 5 4 3 3 3 2 2 1 1 1 1 1 1
1 1 1 1 1 1 2 2 2 2 2 2 2 2 2 2 1 2 3 4 4 4 4 5 5 6 6 7 8 9 9 8 6 4 3 3 2 1 1 1 0 1 1 1
1 1 1 1 1 1 1 1 2 2 2 2 2 1 1 1 1 2 3 4 4 5 5 5 6 7 7 8 9 11 11 9 6 4 2 1 1 1 0 0 0 0 0 0
1 1 1 1 0 0 0 1 1 1 1 1 1 1 1 1 2 2 2 2 3 4 4 4 4 5 5 5 6 7 7 5 3 2 1 0 0 0 0 0 0 0 0 0
1 1 1 0 0 0 0 0 0 0 1 1 1 1 1 1 1 1 1 1 1 2 2 2 2 2 2 2 2 2 1 1 0 0 0 0 0 0 0 0 0 0 0 0
1 1 0 0 0 0 0 0 0 0 0 0 0 1 1 0 0 0 1 1 1 1 0 0 1 1 0 0 0 0 0 0 0 0 0 0 0 0 0 0 0 0 0 0
1 0 0 0 0 0 0 0 0 0 0 0 0 0 0 0 0 0 0 1 1 0 0 0 0 0 0 0 0 0 0 0 0 0 0 0 0 0 0 0 0 0 0 0
0 0 0 0 0 0 0 0 0 0 0 0 0 0 0 0 0 0 1 1 0 0 0 0 0 0 0 0 0 0 0 0 0 0 0 0 0 0 0 0 0 0 0 0
0 0 0 0 0 0 0 0 0 0 0 0 0 0 0 0 1 1 1 0 0 0 0 0 0 0 0 0 0 0 0 0 0 0 0 0 0 0 0 0 0 0 0 0
0 0 0 0 0 0 0 1 1 1 1 0 0 1 1 1 1 1 1 0 0 0 0 0 0 0 0 0 0 0 0 0 0 0 0 0 0 0 0 0 0 0 0 0
0 0 0 0 0 0 1 1 1 1 1 1 1 1 1 1 1 1 0 0 0 0 0 0 0 0 0 0 0 0 0 0 0 0 0 0 0 0 0 0 0 0 0 0

GEFSNGP_con_maxscp_216.txt.gz
SCP
0 0 0 0 0 0 0 0 1 2 3 4 4 4 5 8 10 10 9 8 9 11 11 11 9 7 6 5 5 6 7 7 6 5 4 4 4 4 5 5 4 4 4 3
0 0 0 0 0 0 0 1 2 3 4 4 4 4 6 9 10 9 8 8 8 8 9 9 8 7 5 5 5 6 7 7 6 5 5 5 4 5 5 5 5 5 4 3
1 0 0 1 1 1 1 1 2 3 4 4 3 4 7 9 9 9 8 6 6 6 7 7 7 6 5 5 6 7 8 8 7 6 6 6 5 5 5 5 5 5 4 4
0 0 0 1 1 2 3 3 3 4 4 3 3 4 6 8 8 7 6 5 4 5 6 6 6 5 6 6 7 8 8 8 7 6 6 6 6 6 5 5 5 5 4 4
0 0 1 1 1 3 4 4 3 3 3 3 3 4 6 6 7 6 5 5 4 5 5 6 6 6 7 7 7 7 7 7 6 6 5 6 6 6 5 5 5 4 4 4
1 1 2 2 2 3 3 3 3 3 3 3 4 5 6 6 7 7 7 6 6 6 6 7 7 7 7 7 7 6 6 6 6 5 5 5 5 5 5 4 4 4 3 3
1 2 3 4 3 2 3 3 4 5 4 4 4 6 7 7 9 9 9 8 7 8 8 8 7 6 6 6 6 6 6 5 5 4 4 4 4 4 4 4 3 4 4 4
2 2 3 4 4 3 3 4 5 6 5 5 6 6 8 9 10 10 9 8 8 9 9 7 6 5 5 6 7 8 7 5 4 4 3 3 4 4 4 3 3 4 4 4
2 2 3 4 5 5 6 6 6 6 7 8 7 7 7 8 9 8 7 6 7 8 8 7 5 4 4 6 8 8 7 5 4 3 3 3 3 3 3 3 3 3 3 3
3 3 3 4 5 6 7 7 6 7 8 8 8 6 6 7 7 6 5 5 6 7 7 6 5 4 5 6 7 7 6 5 4 4 3 3 2 2 2 2 2 2 2 3
6 5 4 4 4 5 6 5 5 7 8 8 7 6 6 8 7 6 6 5 5 6 7 6 4 4 5 6 7 7 7 6 5 4 3 3 2 1 1 1 1 2 3 4
7 6 5 4 4 4 4 4 4 6 7 7 6 6 8 9 8 7 7 6 5 6 6 6 5 5 6 7 7 8 7 6 5 4 3 3 2 1 1 1 1 1 2 3
6 6 6 5 4 3 4 4 5 6 6 6 5 7 9 10 10 9 8 7 6 5 5 5 5 5 6 7 8 8 7 6 5 4 3 3 3 2 1 1 0 0 1 1
4 5 6 6 5 4 5 6 8 9 9 9 9 10 11 12 12 10 9 7 6 5 5 5 5 5 5 7 7 7 6 6 5 4 3 4 4 3 2 1 1 1 0 0
3 4 4 4 4 4 5 7 8 10 12 13 14 13 13 13 12 11 9 8 6 5 5 5 4 4 5 6 7 7 6 5 4 3 3 4 4 3 3 2 2 1 1 0
3 3 3 3 4 3 4 5 6 8 10 11 12 12 12 11 11 10 8 7 5 4 4 4 4 4 4 5 6 6 5 4 3 3 4 4 3 3 3 3 2 1 1 1
3 3 3 4 4 3 2 3 3 5 6 6 6 7 7 8 8 8 7 5 4 3 4 4 3 3 3 4 5 5 4 4 4 4 5 4 4 3 3 3 2 1 1 1
2 2 3 4 4 3 2 2 3 3 4 3 3 3 4 5 6 6 6 5 4 3 3 3 2 2 2 3 4 4 4 4 5 6 7 6 5 4 3 2 1 1 1 1
2 2 3 3 3 3 2 2 2 2 3 3 3 3 3 4 5 5 5 4 4 3 3 2 2 2 2 3 3 3 3 4 6 7 6 5 4 4 2 1 0 1 1 0
1 2 2 3 3 2 2 2 2 2 2 2 2 3 3 3 4 4 3 3 2 2 2 1 1 2 2 2 2 2 2 3 3 4 3 2 2 1 1 0 0 0 0 0
1 1 2 3 2 2 1 1 1 1 2 2 2 2 3 3 3 3 2 1 1 0 0 0 0 1 1 1 1 1 1 1 1 1 0 0 0 0 0 0 1 0 0 0
1 2 2 2 2 1 1 1 1 1 1 1 2 2 2 2 2 2 1 1 0 0 0 0 0 0 0 1 1 1 1 1 1 0 0 0 1 0 0 1 1 0 0 0
2 2 2 1 1 1 1 1 1 1 1 1 1 1 2 2 1 1 1 0 0 0 0 0 0 0 0 0 1 1 1 1 0 0 0 0 1 1 1 1 1 0 0 0
1 2 1 1 1 1 1 1 1 1 1 1 1 1 1 1 1 1 0 0 0 0 0 0 0 0 0 0 1 1 1 1 0 0 0 0 0 0 1 1 1 0 0 0
1 1 1 1 1 1 1 1 1 1 1 0 1 1 1 1 0 0 0 0 0 0 0 0 0 0 0 0 1 1 1 1 0 0 0 0 0 0 1 1 1 0 0 0
1 1 1 1 1 1 1 1 1 1 0 0 1 1 1 1 0 0 0 0 0 0 0 0 0 0 0 0 1 1 0 0 0 0 0 0 0 0 1 1 1 1 0 0
1 1 1 1 1 1 1 0 1 1 0 0 1 1 0 0 0 0 0 0 0 0 0 0 0 0 0 0 0 0 0 0 0 0 0 0 0 0 1 1 1 1 1 0

GEFSNGP_con_maxscp_222.txt.gz
SCP
0 0 0 0 0 0 0 0 1 2 2 2 3 4 5 6 6 7 8 10 11 9 7 6 6 5 5 4 4 4 4 4 3 3 3 3 3 3 3 2 2 2 2 1
0 0 0 0 0 0 1 1 2 3 3 3 4 5 5 5 6 7 9 10 10 8 7 6 5 5 5 5 5 4 4 3 3 3 3 3 3 3 2 2 2 2 2 2
0 0 0 1 1 1 1 2 3 3 3 4 5 6 5 5 5 7 8 8 7 6 6 5 4 5 6 6 6 5 4 3 3 3 4 3 3 3 3 2 2 2 2 2
0 0 0 1 1 2 2 3 3 3 4 5 7 7 6 5 5 6 6 6 5 5 5 5 5 7 8 8 6 5 4 3 3 3 4 4 4 3 3 3 2 2 2 2
0 0 1 1 2 2 3 3 3 3 4 6 8 8 6 6 6 6 6 6 6 6 5 6 7 9 10 8 6 5 3 3 2 3 4 4 4 4 3 3 3 2 2 2
0 1 1 2 3 2 2 3 2 3 4 7 8 8 8 8 8 8 8 8 8 7 7 8 10 11 10 8 6 4 3 2 2 3 4 4 4 4 3 3 3 3 3 3
0 1 2 3 3 3 2 2 2 3 5 7 8 10 12 13 12 10 8 7 7 8 9 10 11 11 9 6 5 3 3 2 2 3 3 4 3 3 3 3 3 3 3 3
1 1 2 3 3 2 2 2 3 4 6 9 11 13 14 14 12 10 8 6 6 7 9 10 10 8 6 5 4 4 3 2 3 3 3 3 3 2 2 2 2 2 2 2
1 2 2 3 3 3 3 4 6 8 9 10 11 11 11 11 10 9 8 7 6 7 9 9 8 6 5 5 5 4 3 3 3 3 3 3 2 2 2 2 1 1 2 2
3 3 3 3 3 3 4 7 9 10 9 9 8 8 7 8 8 8 8 8 7 7 8 9 8 6 5 5 5 5 4 3 3 3 3 2 2 2 2 1 1 1 1 1
4 3 3 3 3 4 6 9 10 8 7 7 6 6 6 8 9 9 9 8 7 7 7 7 6 5 4 4 5 5 4 4 4 3 3 2 2 1 1 1 1 1 1 1
3 3 3 4 4 6 8 9 8 7 6 5 6 7 8 9 9 10 9 8 7 6 6 5 5 4 4 4 4 5 5 5 5 4 2 1 1 1 1 1 0 0 0 1
4 5 6 7 8 9 9 8 7 6 5 4 6 8 10 10 9 9 8 6 5 5 5 5 4 4 4 4 4 5 5 6 5 4 2 1 1 1 0 0 0 0 0 0
6 8 11 12 11 10 8 6 6 5 4 4 6 9 11 10 9 7 6 4 4 4 5 5 4 4 4 4 4 4 5 6 6 4 2 1 1 1 1 1 0 0 0 0
6 10 13 12 10 7 6 5 5 6 5 5 7 9 11 11 10 8 6 4 4 4 4 4 4 3 3 3 3 4 5 5 5 4 2 1 1 1 1 1 0 0 0 0
4 7 10 10 7 5 4 4 5 6 7 9 11 12 13 12 11 9 7 5 4 4 3 2 2 2 2 2 2 3 3 4 4 4 3 2 1 1 1 0 0 0 0 0
2 4 6 7 5 3 2 3 3 5 9 12 15 15 14 13 11 8 6 5 4 3 2 1 1 1 1 1 1 1 1 2 3 3 3 2 1 0 0 0 0 0 0 0
2 3 4 4 3 2 2 2 2 4 8 11 13 13 11 9 7 5 3 2 2 1 1 1 1 1 1 1 1 0 1 1 2 2 2 1 0 0 0 0 0 0 0 0
2 2 2 2 2 1 1 1 2 3 4 6 7 6 5 4 3 2 1 0 0 0 0 0 0 0 0 0 0 0 0 1 1 1 1 0 0 0 0 0 0 0 0 0
1 1 2 2 2 1 1 1 1 1 1 2 2 2 1 1 1 1 1 0 0 1 0 0 0 0 0 0 0 0 0 0 0 0 0 0 0 0 0 0 0 0 0 0
1 1 1 1 1 1 1 1 1 0 0 0 0 0 0 1 1 1 1 0 0 0 0 0 0 0 0 0 0 0 0 0 0 0 0 0 0 0 0 0 0 0 0 0
1 1 1 1 1 1 1 1 1 0 0 0 0 0 0 0 1 1 1 0 0 0 0 0 0 0 0 0 0 0 0 0 0 0 0 0 0 0 0 0 0 0 0 0
1 1 1 1 1 1 1 1 1 0 0 0 0 0 0 0 0 0 0 0 0 0 0 0 0 0 0 0 0 0 0 0 0 0 0 0 0 0 0 0 0 0 0 -0
1 1 0 0 0 0 0 0 0 0 0 0 0 0 0 0 0 0 0 0 0 0 0 0 0 0 0 0 0 0 0 0 0 0 0 0 0 0 0 0 0 0 0 0
1 1 0 0 0 0 0 0 0 0 0 0 0 0 0 0 0 0 0 0 0 0 0 0 0 0 0 0 0 0 0 0 0 0 0 0 0 0 0 0 0 0 0 0
0 0 0 0 0 0 0 0 0 0 0 0 0 0 0 0 0 0 0 0 0 0 0 0 0 0 0 0 0 0 0 0 0 0 0 0 0 0 0 0 0 0 0 0
0 0 0 0 0 0 0 0 0 0 0 0 0 0 0 0 0 0 0 0 0 0 0 0 0 0 0 0 0 0 0 0 0 0 0 0 0 0 0 0 0 0 0 0

GEFSNGP_con_maxscp_228.txt.gz
SCP
0 0 0 0 0 0 0 0 0 0 1 1 1 2 2 2 3 4 6 6 5 4 4 4 4 4 4 3 3 3 3 3 3 2 2 2 2 1 1 1 2 2 2 2
0 0 0 0 0 0 0 0 0 0 1 1 1 2 2 2 3 5 6 6 5 4 3 3 4 4 4 4 4 3 3 3 2 2 2 2 2 1 1 1 2 3 3 2
0 0 0 0 0 0 0 0 0 1 1 1 2 2 2 2 3 6 7 5 4 3 3 3 3 4 5 5 4 4 3 3 2 2 2 2 2 1 1 1 2 2 3 2
0 0 0 0 1 1 1 0 1 1 1 2 2 3 3 3 4 5 5 4 3 2 2 2 3 4 5 5 5 4 3 3 2 2 2 2 2 1 1 2 2 2 2 2
0 0 0 1 1 1 1 1 1 1 2 2 2 3 3 3 3 4 4 3 2 2 3 3 3 3 4 5 5 4 4 3 2 2 2 2 2 1 1 2 2 3 3 2
0 0 0 1 1 1 1 1 1 1 2 3 3 2 3 3 4 4 5 4 4 3 3 3 3 3 4 5 5 5 5 4 3 2 2 2 2 1 2 2 3 3 3 3
0 0 0 1 1 1 1 1 1 2 3 4 3 2 3 4 5 7 8 7 6 4 3 3 3 3 4 4 5 5 6 5 4 3 2 2 2 2 2 3 4 4 4 3
0 0 0 0 1 1 1 1 1 2 3 4 3 3 4 5 6 8 9 9 7 5 4 3 4 4 4 4 5 6 6 4 3 3 2 2 2 3 4 4 4 4 3 3
0 0 0 0 1 1 1 1 2 2 3 3 4 4 5 5 5 6 7 7 6 5 5 5 4 5 5 5 5 5 5 4 3 3 3 3 3 3 4 4 4 3 2 2
1 1 1 1 1 1 1 1 2 2 3 3 4 4 5 5 4 4 4 5 5 5 6 6 6 5 5 5 4 4 4 4 4 3 3 3 3 3 4 3 3 2 1 1
1 1 2 2 1 1 1 2 2 3 4 4 5 5 5 5 4 3 3 3 4 5 6 6 7 6 6 5 4 4 3 3 3 3 3 3 3 3 2 2 2 1 1 1
1 1 2 2 1 1 2 2 3 5 6 6 5 5 5 5 4 3 2 3 3 4 4 5 6 6 6 4 4 3 3 3 3 3 3 3 3 2 1 1 1 1 1 1
1 1 2 2 2 2 3 3 4 6 7 7 6 5 5 4 4 3 2 2 2 3 3 3 4 5 4 3 3 2 2 3 3 3 4 4 3 2 1 0 0 0 0 0
1 1 2 2 2 3 3 5 6 7 7 7 5 5 4 4 4 3 2 1 2 2 2 2 2 2 2 2 2 2 2 3 4 4 4 4 3 3 2 1 1 0 0 0
2 2 2 2 2 3 4 5 6 7 6 5 4 3 4 4 4 3 2 2 1 1 1 1 1 1 1 1 2 2 3 3 4 4 4 4 3 2 2 1 1 0 0 0
2 2 2 2 3 3 4 4 5 5 4 4 4 3 4 5 4 3 3 2 1 1 1 1 1 1 1 1 2 2 3 3 3 3 3 3 2 2 1 1 1 0 0 0
3 3 3 3 3 3 3 3 3 3 3 4 4 4 5 6 5 4 3 2 2 1 1 1 1 1 0 1 1 2 2 2 2 2 2 1 1 1 1 1 0 0 0 0
3 3 4 4 3 2 2 2 2 2 2 3 3 4 6 7 5 3 3 2 1 1 1 1 1 0 0 0 1 1 1 1 1 1 1 1 1 1 1 0 0 0 0 0
2 3 3 3 3 2 1 1 1 1 1 2 3 5 6 6 4 3 2 2 1 1 0 0 0 0 0 0 0 0 0 0 0 0 0 0 0 0 0 0 0 0 0 0
1 2 2 2 2 1 1 0 1 1 1 2 3 4 4 4 3 2 2 1 1 0 0 0 0 0 0 0 0 0 0 0 0 0 0 0 0 0 0 0 0 0 0 0
2 2 2 2 1 1 0 0 1 1 2 2 3 2 2 2 1 1 1 1 0 0 0 0 0 0 0 0 0 0 0 0 0 0 0 0 0 0 0 0 0 0 0 0
2 2 2 2 1 1 1 0 1 1 2 2 2 1 1 1 0 0 0 0 0 0 0 0 0 0 0 0 0 0 0 0 0 0 0 0 0 0 0 0 0 0 0 0
1 1 1 1 1 1 0 0 0 1 1 2 1 1 0 0 0 0 0 0 0 0 0 0 0 0 0 0 0 0 0 0 0 0 0 0 0 0 0 0 0 0 0 0
0 1 1 0 0 0 0 0 0 0 0 1 0 0 0 0 0 0 0 0 0 0 0 0 0 0 0 0 0 0 0 0 0 0 0 0 0 0 0 0 0 0 0 0
0 0 0 0 0 0 0 0 0 0 0 0 0 0 0 0 0 0 0 0 0 0 0 0 0 0 0 0 0 0 0 0 0 0 0 0 0 0 0 0 0 0 0 0
0 0 0 0 0 0 0 0 0 0 0 0 0 0 0 0 0 0 0 0 0 0 0 0 0 0 0 0 0 0 0 0 0 0 0 0 0 0 0 0 0 0 0 0
0 0 0 0 0 0 0 0 0 0 0 0 0 0 0 0 0 0 0 0 0 0 0 0 0 0 0 0 0 0 0 0 0 0 0 0 0 0 0 0 0 0 0 0